Flag for US Virgin Islands Weather past 2 weeks in Christiansted, US Virgin Islands

Now
87 °F

Scattered clouds.


Feels Like: 97 °F
Forecast: 76 / 85 °F
Wind: 9 mph from East

Location: Christiansted / Henry E. Rohlsen Airport - Saint Croix

Current Time: Sep 16, 2014 at 3:31:32 PM

Latest Report: Sep 16, 2014 at 2:53 PM


Visibility: 10 mi

Pressure: 29.94 "Hg

Humidity: 67%

Dew point: 75 °F

Location of ChristianstedLocation

Historic Weather in Christiansted — Graph

°F

Christiansted temperature yesterday

Maximum temperature yesterday: 89 °F (at 12:53 PM)
Minimum temperature yesterday: 76 °F (at 5:53 AM)
Average temperature yesterday: 82 °F

Past Weeks' High & Low Weather Summary

 TemperatureHumidityPressure
High89 °F (Sep 6, 12:53 PM)94% (Sep 2, 2:26 AM)30.08 "Hg (Sep 2, 2:26 AM)
Low75 °F (Sep 16, 4:53 AM)59% (Sep 6, 2:53 PM)29.92 "Hg (Sep 11, 4:53 PM)
Average82 °F78%29.99 "Hg
* Reported Sep 1 1:53 PM — Sep 16 1:53 PM, Christiansted, Weather by CustomWeather, © 2014

Note: Actual official high and low records may vary slightly from our data, if they occured in-between our weather recording intervals... More about our weather records

Advertising

Christiansted weather history for previous 24 hours

 ConditionsComfort  
Time TempWeatherWind HumidityBarometerVisibility
1:53 PM
Sep 16
87 °FPassing clouds.8 mph67%29.96 "Hg10 mi
11:53 AM88 °FScattered clouds.10 mph63%30.01 "Hg10 mi
10:53 AM88 °FScattered clouds.12 mph63%30.02 "Hg10 mi
8:53 AM86 °FScattered clouds.13 mph67%30.01 "Hg10 mi
6:53 AM77 °FSunny.3 mph90%29.98 "Hg10 mi
5:53 AM76 °FClear.6 mph94%29.97 "Hg10 mi
4:53 AM75 °FClear.5 mph94%29.97 "Hg10 mi
3:53 AM76 °FClear.5 mph94%29.96 "Hg10 mi
2:53 AM76 °FClear.5 mph94%29.97 "Hg10 mi
1:53 AM77 °FClear.5 mph90%29.99 "Hg10 mi
11:53 PM
Sep 15
78 °FClear.5 mph87%30.02 "Hg10 mi
10:53 PM77 °FClear.3 mph90%30.03 "Hg10 mi
9:53 PM78 °FClear.5 mph87%30.03 "Hg10 mi
7:53 PM80 °FClear.5 mph81%29.99 "Hg10 mi
6:53 PM81 °FPassing clouds.3 mph79%29.98 "Hg10 mi
5:53 PM83 °FPassing clouds.7 mph72%29.96 "Hg10 mi
4:53 PM86 °FScattered clouds.10 mph63%29.96 "Hg10 mi
3:53 PM87 °FPassing clouds.13 mph67%29.96 "Hg10 mi
Weather by CustomWeather, © 2014

See weather overviewHow to use our weather pages